Justin Berghuis

Olheiro-Chefe - Cambuur
8 Jan 2028
Sábado
Processo

Personalidade

Adaptabilidade (16) Ambição (15) Controvérsia (2) Lealdade (19) Pressão (3) Profissionalismo (15) Espírito Esportivo (12) Temperamento (10)

Perfil

Estilo de Treinamento Democrático
Licença Nacional B
Determinação 10
Gestão de Pessoas 11
Motivação 8
Disciplina 3
Satisfação no Trabalho
98%
Fadiga
0%
Função Olheiro-Chefe
Salário 17.0K p/s
Contrato 14.03.2028

Desempenho

Comportamento Bom
Eficácia do Treinamento
36%
Desenvolvimento do Jogador
40%
Prevenção de Lesões
30%
Implementação Tática
15%

Eventos Recentes

Recomendou um alvo de transferência agora
Recomendou um alvo de transferência agora
Recomendou um alvo de transferência agora
Recomendou um alvo de transferência agora
Participou de uma reunião de recrutamento agora
Participou de uma reunião de recrutamento agora
Negociação de contrato iniciada agora
Negociação de contrato iniciada agora

Monitorando agora

76
Jogador Clube Status Habilidade Confiança Observado Última observação Último voto
Moctar Diop Excelsior Negociando 114 / 122 67% 1 01.01.2028 Aprovar
Dragos Balasa Javor-Matis Negociando 94 / 95 66% 1 01.01.2028 Aprovar
Konstantin Tyukavin Arsenal Negociando 133 / 134 67% 1 01.01.2028 Aprovar
Mats Egbring Heerenveen Ativo 99 / 113 41% 1 02.08.2027 -
Caio Vidal FC Copenhagen Negociando 128 / 129 63% 1 01.06.2027 Aprovar
Sam Ringeling Feyenoord Ativo 87 / 103 41% 1 25.01.2027 -
Amar Memić Juventude Negociando 127 / 128 62% 1 01.01.2027 Aprovar
Santiago Sanchez Santa Fe Negociando 132 / 132 64% 1 01.01.2027 Aprovar
Relebohile Mofokeng Orlando Pirates Ativo 102 / 108 40% 1 29.12.2026 -
Kelly Saravanan Salford City Ativo 101 / 119 40% 4 28.12.2026 -
Richard Koné Queens Park Rangers Ativo 111 / 129 40% 2 26.12.2026 -
Andrés Martín Racing Santander Ativo 130 / 124 40% 2 25.12.2026 -
Brayan Gil Baltika Ativo 129 / 115 40% 1 25.12.2026 -
George Hirst Stoke City Ativo 125 / 125 40% 1 23.12.2026 Mais informações
Yeremay Deportivo La Coruña Ativo 134 / 143 40% 1 23.12.2026 -
Tommy Conway Middlesbrough Ativo 118 / 123 40% 1 19.12.2026 -
Urko Izeta Cádiz Ativo 118 / 122 40% 1 19.12.2026 -
Shandre Campbell KV Kortrijk Ativo 97 / 116 40% 2 18.12.2026 -
Tommy St. Jago KV Mechelen Ativo 108 / 112 40% 2 16.12.2026 -
Myron van Brederode KV Mechelen Ativo 133 / 116 40% 2 16.12.2026 -
Ryotaro Araki Sint-Truiden Ativo 117 / 116 40% 1 13.12.2026 -
Rumarn Burrell Queens Park Rangers Ativo 139 / 119 40% 1 12.12.2026 -
Aune Heggebø West Bromwich Albion Ativo 140 / 134 40% 1 12.12.2026 -
Ibrahim Cissoko Zwolle Ativo 133 / 131 40% 1 12.12.2026 -
Radja Meunier KV Oostende Ativo 110 / 120 40% 1 12.12.2026 -
Maksim Kireev KV Mechelen Ativo 125 / 131 40% 1 11.12.2026 -
Ibrahim Sadiq AZ Ativo 132 / 127 40% 1 09.12.2026 -
Pau Víctor Estrela da Amadora Ativo 137 / 137 40% 2 07.12.2026 Mais informações
Antoine Colassin Charleroi Ativo 125 / 117 40% 3 07.12.2026 Observar
Zico Buurmeester Leganés Ativo 115 / 115 40% 1 07.12.2026 -
Mees Rijks Bristol Rovers Ativo 113 / 110 40% 2 05.12.2026 -
Zayd El Kandoussi OH Leuven Ativo 111 / 108 40% 2 04.12.2026 -
Luka Kulenović Heracles Ativo 111 / 123 40% 1 04.12.2026 -
Jalen Hawkins ADO Den Haag Ativo 124 / 107 40% 1 03.12.2026 -
Camilo Durán Bloemfontein Celtic Ativo 111 / 116 40% 2 02.12.2026 -
Keano Vanrafelghem KV Mechelen Ativo 97 / 111 40% 2 26.11.2026 -
Jorge Pascual Granada Ativo 146 / 140 40% 1 26.11.2026 -
Lamine Cissé Peterborough United Ativo 112 / 130 40% 2 22.11.2026 -
Jay Stansfield Birmingham Ativo 121 / 131 40% 1 22.11.2026 -
David Miculescu FCSB Ativo 111 / 109 40% 1 20.11.2026 -
Sieben Dewaele Waasland-Beveren Ativo 104 / 105 40% 3 19.11.2026 -
Matthew Anderson KV Kortrijk Ativo 113 / 111 40% 1 16.11.2026 -
Robert-Jan Vanwesemael Dijon Ativo 127 / 118 40% 1 16.11.2026 -
Jakob Napoleon Romsaas Charleroi Ativo 125 / 130 40% 1 13.11.2026 -
Wessam Abou Ali Columbus Crew Ativo 144 / 140 40% 1 13.11.2026 -
Dejan Joveljić Seattle Sounders Ativo 132 / 137 40% 1 09.11.2026 -
Rafiu Durosinmi Racing Genk Ativo 132 / 140 40% 2 08.11.2026 -
Daan Heymans Racing Genk Ativo 131 / 120 40% 2 06.11.2026 -
Thomas Alderweireld Dijon Ativo 129 / 121 40% 1 04.11.2026 -
Thorgan Castagne KV Oostende Ativo 137 / 120 40% 1 04.11.2026 -
Thomas Van Den Keybus Westerlo Ativo 109 / 108 40% 2 02.11.2026 -
Tyrese Campbell Sheffield United Ativo 136 / 131 40% 1 31.10.2026 -
Jovon Makama Norwich City Ativo 109 / 134 40% 1 30.10.2026 -
Marin Benko Zadar Ativo 105 / 129 40% 2 29.10.2026 -
Oscar Gloukh Ajax Ativo 137 / 128 40% 3 27.10.2026 -
Dylan Vente Heerenveen Ativo 129 / 115 40% 2 26.10.2026 -
Léandre Kuavita Waasland-Beveren Ativo 130 / 120 40% 1 23.10.2026 -
Zinho Castagne KV Oostende Ativo 120 / 133 40% 1 23.10.2026 -
Myron Boadu Twente Ativo 141 / 138 40% 1 20.10.2026 -
William Balikwisha OH Leuven Ativo 116 / 115 40% 1 20.10.2026 -
Kévin Denkey FC Cincinnati Ativo 127 / 112 40% 2 17.10.2026 -
Maurice Malone Minnesota United FC Ativo 131 / 133 40% 1 17.10.2026 -
Cisse Sandra Westerlo Ativo 104 / 126 40% 1 17.10.2026 -
Derrick Kyere Lokeren Ativo 105 / 100 40% 2 13.10.2026 -
Jerome Karelse Golden Arrows Ativo 94 / 106 40% 1 12.10.2026 -
Dylan Ourega Westerlo Ativo 101 / 121 40% 1 12.10.2026 -
Tadeo Allende Inter Miami CF Ativo 109 / 117 40% 1 10.10.2026 -
Koen Kostons Zwolle Ativo 101 / 123 40% 1 08.10.2026 -
Nicolás Cordero Aldosivi Ativo 128 / 111 40% 1 07.10.2026 -
Dávid Strelec Middlesbrough Ativo 125 / 130 40% 1 05.10.2026 -
Henok Teklab OH Leuven Ativo 133 / 108 40% 2 11.09.2026 -
Ki-Jana Hoever Sparta Prague Ativo 112 / 142 40% 1 10.09.2026 -
Chris Lokesa Waasland-Beveren Ativo 107 / 126 40% 1 09.09.2026 -
Quinten Timber Crystal Palace Ativo 143 / 139 40% 1 08.09.2026 -
Hugo Vetlesen Club Brugge Ativo 123 / 119 40% 1 08.09.2026 -
Sven van der Plas PSV Ativo 72 / 100 41% 1 24.08.2026 -